DAL27 KATL-RKSI

Flight info

Callsign DAL27
Flight time N/A
Altitude 34000
Route VARNM2 RESPE DCT 40N088W DCT ODI DCT 50N100W 54N110W/N0489F360 56N120W 58N130W DCT DEEJA DCT YAK DCT 61N150W/N0498F380 61N160W 60N170W 58N180E DCT NATES/N0500F390 R220 NRKEY/N0497F400 R220 NUBDA/N0488F410 R220 NODAN/N0488F400 R217 ASTER Y514 SDE Y512 GTC Y142 SAMON Y14 SUGNO Y16 SAPRA Y685 GUKDO GUKDO2C
Aircraft A359/H-SDE2E3GHIJ3J4J5LM1ORWXY/LB1D1

Departure

Time 2026-05-05 18:06
Airport Hartsfield Jackson Atlanta International Airport (KATL)

Arrival

Time N/A
Airport Incheon International Airport (RKSI)
Time Latitude Longitude Altitude Speed Heading
2026-05-05 17:45 33.63833 -84.42653 1012 ft 0 kts 89°
2026-05-05 17:57 33.63833 -84.42659 1012 ft 2 kts 89°
2026-05-05 17:57 33.63832 -84.42683 1014 ft 3 kts 89°
2026-05-05 17:57 33.63832 -84.42701 1016 ft 2 kts 91°
2026-05-05 17:57 33.63834 -84.42722 1010 ft 3 kts 128°
2026-05-05 17:58 33.63848 -84.42733 1011 ft 3 kts 176°
2026-05-05 17:58 33.63867 -84.42733 1013 ft 2 kts 181°
2026-05-05 17:58 33.63871 -84.42733 1012 ft 5 kts 180°
2026-05-05 17:59 33.63870 -84.42733 1012 ft 0 kts 180°
2026-05-05 18:00 33.63858 -84.42733 1013 ft 7 kts 180°
2026-05-05 18:00 33.63764 -84.42733 1013 ft 17 kts 180°
2026-05-05 18:01 33.63690 -84.42773 1013 ft 9 kts 270°
2026-05-05 18:01 33.63779 -84.42805 1013 ft 25 kts 360°
2026-05-05 18:01 33.63969 -84.42807 1012 ft 28 kts 360°
2026-05-05 18:01 33.64162 -84.42808 1013 ft 28 kts 360°
2026-05-05 18:02 33.64355 -84.42808 1013 ft 27 kts
2026-05-05 18:02 33.64509 -84.42760 1013 ft 21 kts 31°
2026-05-05 18:02 33.64548 -84.42606 1012 ft 20 kts 90°
2026-05-05 18:02 33.64548 -84.42425 1012 ft 24 kts 91°
2026-05-05 18:03 33.64541 -84.42201 1012 ft 29 kts 91°
2026-05-05 18:03 33.64542 -84.41946 1012 ft 30 kts 89°
2026-05-05 18:03 33.64540 -84.41695 1013 ft 29 kts 89°
2026-05-05 18:03 33.64540 -84.41452 1013 ft 29 kts 90°
2026-05-05 18:04 33.64541 -84.41213 1013 ft 29 kts 90°
2026-05-05 18:04 33.64541 -84.40975 1012 ft 28 kts 90°
2026-05-05 18:04 33.64585 -84.40806 1012 ft 16 kts
2026-05-05 18:04 33.64674 -84.40859 1012 ft 15 kts 289°
2026-05-05 18:05 33.64679 -84.40980 1013 ft 18 kts 270°
2026-05-05 18:05 33.64679 -84.41348 1015 ft 71 kts 270°
2026-05-05 18:05 33.64677 -84.42151 1010 ft 120 kts 269°
2026-05-05 18:05 33.64680 -84.43318 1087 ft 152 kts 266°
2026-05-05 18:06 33.64685 -84.44456 1824 ft 118 kts 258°
2026-05-05 18:06 33.64676 -84.44789 1968 ft 122 kts 258°
2026-05-05 18:06 33.65172 -84.46756 2171 ft 166 kts 284°
2026-05-05 18:06 33.65604 -84.48096 2418 ft 183 kts 284°
2026-05-05 18:07 33.66094 -84.49573 2557 ft 198 kts 289°
2026-05-05 18:07 33.66656 -84.51154 2718 ft 214 kts 289°
2026-05-05 18:07 33.67282 -84.52874 2812 ft 237 kts 289°
2026-05-05 18:07 33.67982 -84.54753 3009 ft 256 kts 291°
2026-05-05 18:08 33.68493 -84.56057 3223 ft 265 kts 294°
2026-05-05 18:08 33.69703 -84.57764 3734 ft 276 kts 324°
2026-05-05 18:08 33.71523 -84.58492 4224 ft 282 kts 356°
2026-05-05 18:08 33.73499 -84.58443 4826 ft 285 kts
2026-05-05 18:09 33.75485 -84.58310 5380 ft 286 kts
2026-05-05 18:09 33.77494 -84.58225 5919 ft 291 kts
2026-05-05 18:09 33.79526 -84.58158 6433 ft 293 kts 359°
2026-05-05 18:09 33.81565 -84.58117 6958 ft 294 kts 358°
2026-05-05 18:10 33.83587 -84.58113 7538 ft 293 kts 357°
2026-05-05 18:10 33.85636 -84.58142 8057 ft 295 kts 355°
2026-05-05 18:10 33.87699 -84.58199 8579 ft 297 kts 355°
2026-05-05 18:10 33.89765 -84.58259 9139 ft 298 kts 355°
2026-05-05 18:11 33.91847 -84.58323 9676 ft 300 kts 355°
2026-05-05 18:11 33.93944 -84.58387 10171 ft 302 kts 355°
2026-05-05 18:11 33.96090 -84.58453 10448 ft 314 kts 354°
2026-05-05 18:11 33.98319 -84.58523 10629 ft 327 kts 355°
2026-05-05 18:12 34.00641 -84.58594 10829 ft 340 kts 355°
2026-05-05 18:12 34.03046 -84.58668 11044 ft 351 kts 355°
2026-05-05 18:12 34.05532 -84.58743 11241 ft 362 kts 355°
2026-05-05 18:12 34.08054 -84.58818 11442 ft 372 kts 355°
2026-05-05 18:13 34.10679 -84.58896 11629 ft 382 kts 355°
2026-05-05 18:13 34.13370 -84.58977 11828 ft 391 kts 355°
2026-05-05 18:13 34.16105 -84.59058 12166 ft 395 kts 355°
2026-05-05 18:13 34.18867 -84.59140 12570 ft 396 kts 355°
2026-05-05 18:14 34.21631 -84.59222 12986 ft 397 kts 355°
2026-05-05 18:14 34.24401 -84.59305 13395 ft 399 kts 355°
2026-05-05 18:14 34.27177 -84.59404 13792 ft 400 kts 353°
2026-05-05 18:14 34.29927 -84.59811 14150 ft 398 kts 346°
2026-05-05 18:15 34.32659 -84.60450 14506 ft 399 kts 345°
2026-05-05 18:15 34.35380 -84.61125 14870 ft 400 kts 345°
2026-05-05 18:15 34.38116 -84.61803 15214 ft 402 kts 344°
2026-05-05 18:15 34.40832 -84.62476 15563 ft 404 kts 344°
2026-05-05 18:16 34.43586 -84.63156 15940 ft 404 kts 344°
2026-05-05 18:16 34.46345 -84.63835 16313 ft 405 kts 344°
2026-05-05 18:16 34.49109 -84.64517 16699 ft 406 kts 344°
2026-05-05 18:16 34.51885 -84.65202 17054 ft 407 kts 344°
2026-05-05 18:17 34.54667 -84.65888 17417 ft 408 kts 344°
2026-05-05 18:17 34.57456 -84.66578 17773 ft 409 kts 343°
2026-05-05 18:17 34.60253 -84.67268 18088 ft 411 kts 343°
2026-05-05 18:17 34.63062 -84.67961 18448 ft 412 kts 343°
2026-05-05 18:18 34.65886 -84.68659 18701 ft 415 kts 343°
2026-05-05 18:18 34.68715 -84.69359 19024 ft 416 kts 343°
2026-05-05 18:18 34.71552 -84.70061 19320 ft 417 kts 343°
2026-05-05 18:18 34.74397 -84.70767 19610 ft 418 kts 343°
2026-05-05 18:19 34.77253 -84.71475 19883 ft 419 kts 343°